This is the latest recevied weather packets stored in our database for station/object SP1BMW-13. If no packets are shown the sender has not sent any weather packets the latest 10 day(s).
| Time | Temp. | Humidity | Pressure | Rain* | Wind** | Luminosity | Snow |
|---|---|---|---|---|---|---|---|
| 1778158134 | 12.78° C | 54% | 1014.4 hPa | 0 mm | 0.89 m/s, 319° | 247 W/m² | - |
| 1778158074 | 12.78° C | 55% | 1014.4 hPa | 0 mm | 1.34 m/s, 302° | 255 W/m² | - |
| 1778158014 | 12.78° C | 55% | 1014.5 hPa | 0 mm | 0.45 m/s, 42° | 257 W/m² | - |
| 1778157954 | 12.78° C | 54% | 1014.5 hPa | 0 mm | 1.79 m/s, 55° | 257 W/m² | - |
| 1778157894 | 12.78° C | 54% | 1014.4 hPa | 0 mm | 1.79 m/s, 10° | 258 W/m² | - |
| 1778157835 | 12.78° C | 54% | 1014.2 hPa | 0 mm | 4.02 m/s, 351° | 264 W/m² | - |
| 1778157774 | 12.78° C | 54% | 1014.3 hPa | 0 mm | 2.68 m/s, 19° | 279 W/m² | - |
| 1778157714 | 12.78° C | 56% | 1014.4 hPa | 0 mm | 0.45 m/s, 37° | 290 W/m² | - |
| 1778157654 | 12.78° C | 53% | 1014.3 hPa | 0 mm | 0.89 m/s, 352° | 297 W/m² | - |
| 1778157596 | 12.78° C | 53% | 1014.3 hPa | 0 mm | 1.79 m/s, 55° | 313 W/m² | - |
| 1778157534 | 12.78° C | 55% | 1014.2 hPa | 0 mm | 1.34 m/s, 35° | 329 W/m² | - |
| 1778157474 | 12.78° C | 53% | 1014.2 hPa | 0 mm | 0.89 m/s, 27° | 342 W/m² | - |
| 1778157414 | 13.33° C | 54% | 1014.1 hPa | 0 mm | 1.34 m/s, 58° | 346 W/m² | - |
| 1778157354 | 13.33° C | 53% | 1014.2 hPa | 0 mm | 0.89 m/s, 33° | 361 W/m² | - |
| 1778157295 | 13.33° C | 52% | 1014.2 hPa | 0 mm | 2.68 m/s, 47° | 405 W/m² | - |
| 1778157234 | 13.33° C | 54% | 1014 hPa | 0 mm | 1.79 m/s, 48° | 412 W/m² | - |
| 1778157174 | 13.33° C | 54% | 1014.1 hPa | 0 mm | 1.79 m/s, 39° | 470 W/m² | - |
| 1778157115 | 13.33° C | 54% | 1014.1 hPa | 0 mm | 1.79 m/s, 0° | 369 W/m² | - |
| 1778157055 | 13.33° C | 54% | 1014.1 hPa | 0 mm | 0.45 m/s, 40° | 365 W/m² | - |
| 1778156995 | 13.33° C | 54% | 1014.2 hPa | 0 mm | 1.79 m/s, 47° | 479 W/m² | - |
| 1778156935 | 13.33° C | 53% | 1014.3 hPa | 0 mm | 1.79 m/s, 19° | 581 W/m² | - |
| 1778156875 | 13.33° C | 54% | 1014.2 hPa | 0 mm | 1.34 m/s, 119° | 565 W/m² | - |
| 1778156815 | 13.33° C | 52% | 1014.2 hPa | 0 mm | 1.79 m/s, 32° | 582 W/m² | - |
| 1778156755 | 13.33° C | 55% | 1014.1 hPa | 0 mm | 0 m/s | 577 W/m² | - |
| 1778156694 | 13.33° C | 53% | 1014.2 hPa | 0 mm | 1.79 m/s, 330° | 547 W/m² | - |
* Rain latest hour (hover to see other rain measurements)
** Current wind speed in m/s (hover to see current wind gust speed)